Regional Weather Roundup
Issued by NWS

Home | Current Version | Previous Version | Graphics & Text | Print | Product List | Glossary On
Versions: 1 2 3 4 5 6 7 8 9 10 11 12 13 14 15 16 17 18 19 20 21 22 23 24 25 26 27 28 29 30 31 32 33 34 35 36 37 38 39 40 41 42 43 44 45 46 47 48 49 50
000
ASUS43 KOAX 040202
RWRNE

WEATHER ROUNDUP FOR NEBRASKA
NATIONAL WEATHER SERVICE OMAHA NE
900 PM CDT SUN MAY 03 2015

NOTES: SATELLITE DATA IS BEING USED TO AUGMENT CLOUD COVER ABOVE
       12000 FEET.
       "FAIR" INDICATES FEW OR NO CLOUDS BELOW 12,000 FEET WITH NO
       SIGNIFICANT WEATHER AND/OR OBSTRUCTIONS TO VISIBILITY.

  * THESE STATIONS DO NOT REPORT WEATHER SUCH AS RAIN...SNOW OR FOG.

NEZ001>004-019>022-054>056-040300-
NEBRASKA PANHANDLE

CITY           SKY/WX    TMP DP  RH WIND       PRES   REMARKS
SCOTTSBLUFF    CLOUDY    62  40  44 E12       29.99S
ALLIANCE       CLOUDY    60  42  51 E9        30.01R
CHADRON        MOCLDY    61  39  44 E9        30.01R
KIMBALL        CLOUDY    56  46  68 N7        30.00R
SIDNEY         CLOUDY    61  42  49 NE9       30.00S
$$

NEZ057>060-069>072-079>082-040300-
SOUTHWEST NEBRASKA

CITY           SKY/WX    TMP DP  RH WIND       PRES   REMARKS
NORTH PLATTE   MOCLDY    66  44  45 NE15      29.91R
IMPERIAL       CLOUDY    67  41  38 NE13      29.91R
MCCOOK         PTCLDY    72  45  37 N14       29.84R
$$

NEZ005>010-023>029-035>040-094-040300-
NORTH CENTRAL NEBRASKA

CITY           SKY/WX    TMP DP  RH WIND       PRES   REMARKS
VALENTINE      PTCLDY    64  34  32 NE14      29.98R
AINSWORTH      MOCLDY    64  34  32 N14       29.97R
BROKEN BOW     CLEAR     67  43  41 N17       29.90R
ORD            CLEAR     67  44  43 N10G22    29.88R
$$

NEZ041-046>049-061>064-073>077-083>087-040300-
SOUTH CENTRAL NEBRASKA

CITY           SKY/WX    TMP DP  RH WIND       PRES   REMARKS
GRAND ISLAND   CLEAR     73  51  46 N21G35    29.80R
AURORA         PTCLDY    77  53  44 N22G29    29.77R
HASTINGS       PTCLDY    77  55  46 N15       29.78R
KEARNEY *      CLEAR     73  50  43 N14       29.82R
$$

NEZ011>018-030>034-042>045-040300-
NORTHEAST NEBRASKA

CITY           SKY/WX    TMP DP  RH WIND       PRES   REMARKS
NORFOLK        PTCLDY    72  43  35 NE20G28   29.85R
BLAIR          CLOUDY    74  55  52 SW5       29.79R
COLUMBUS *     PTCLDY    73  57  56 NE13      29.81R
FREMONT        CLOUDY    76  55  47 NE9       29.79R
TEKAMAH        LGT RAIN  75  55  49 NW25      29.81R
$$

NEZ050>053-065>068-078-088>093-040300-
SOUTHEAST NEBRASKA

CITY           SKY/WX    TMP DP  RH WIND       PRES   REMARKS
LINCOLN        MOCLDY    70  56  61 SE13      29.78R
OMAHA EPPLEY   CLOUDY    76  58  53 NW13G23   29.77R THUNDER
FALLS CITY     CLOUDY    78  55  44 S8        29.78R
NEBRASKA CITY  TSTM      75  49  39 SE8       29.81R
PLATTSMOUTH    CLOUDY    74  47  38 S8        29.77S
$$

NEZ044-045-051>053-067-040300-
OMAHA AREA

CITY           SKY/WX    TMP DP  RH WIND       PRES   REMARKS
OMAHA EPPLEY   CLOUDY    76  58  53 NW13G23   29.77R THUNDER
BLAIR          CLOUDY    74  55  52 SW5       29.79R
FREMONT        CLOUDY    76  55  47 NE9       29.79R
OFFUTT AFB     PTCLDY    74  53  47 S8        29.75R
PLATTSMOUTH    CLOUDY    74  47  38 S8        29.77S
WAHOO          FAIR      70  53  55 SE3       29.77R
$$



USA.gov is the U.S. government's official web portal to all federal, state and local government web resources and services.